Regional Weather Roundup
Issued by NWS

Home | Current Version | Previous Version | Text Only | Print | Product List | Glossary On
Versions: 1 2 3 4 5 6 7 8 9 10 11 12 13 14 15 16 17 18 19 20 21 22 23 24 25 26 27 28 29 30 31 32 33 34 35 36 37 38 39 40 41 42 43 44 45 46 47 48 49 50
000
ASUS43 KLMK 192202
RWRKY
KENTUCKY REGIONAL WEATHER ROUNDUP
NATIONAL WEATHER SERVICE LOUISVILLE KY
600 PM EDT SAT APR 19 2014

NOTE "FAIR" INDICATES FEW OR NO CLOUDS BELOW 12,000 FEET
WITH NO SIGNIFICANT WEATHER AND/OR OBSTRUCTIONS TO VISIBILITY.

KYZ001>023-026-027-061>063-070>075-192300-
WESTERN AND SOUTH CENTRAL KENTUCKY

CITY           SKY/WX    TMP DP  RH WIND       PRES   REMARKS
PADUCAH        SUNNY     77  38  24 VRB6      30.15S
HENDERSON      SUNNY     72  41  33 NE6       30.17F
OWENSBORO      SUNNY     74  35  24 E7        30.18S
HOPKINSVILLE   SUNNY     75  41  29 NE7       30.15S
BOWLING GREEN  SUNNY     74  38  27 NE13      30.15S
GLASGOW        NOT AVBL
$$

KYZ024-025-028>034-038-045-046-053-192300-
NORTH CENTRAL KENTUCKY

CITY           SKY/WX    TMP DP  RH WIND       PRES   REMARKS
LOUISVILLE/SDF MOSUNNY   74  37  26 E10       30.20R
LOUISVILLE/LOU SUNNY     75  36  24 E10       30.20S
FORT KNOX      SUNNY     73  36  26 NE10      30.18S
$$

KYZ035>037-039>044-047>052-055>060-089>105-192300-
NORTHEAST KENTUCKY

CITY           SKY/WX    TMP DP  RH WIND       PRES   REMARKS
LEXINGTON      SUNNY     71  36  27 NE15G23   30.19F
COVINGTON      MOSUNNY   68  33  27 NE9G18    30.24R
FRANKFORT      SUNNY     72  32  23 N15G21    30.19S
$$

KYZ054-064>069-076>088-106>120-192300-
SOUTHEAST KENTUCKY

CITY           SKY/WX    TMP DP  RH WIND       PRES   REMARKS
JACKSON        PTSUNNY   72  32  23 CALM      30.16S
LONDON         MOSUNNY   76  35  22 NE8       30.14S
SOMERSET       NOT AVBL
MIDDLESBORO    NOT AVBL
MONTICELLO     CLEAR     74  39  28 N12       30.15F
$$




USA.gov is the U.S. government's official web portal to all federal, state and local government web resources and services.